Tracking 26544 objects as of 9-Dec-2022
HD Live streaming from Space Station
objects crossing your sky now

TELSTAR 302

Track TELSTAR 302 now!
TELSTAR 302 is classified as:


NORAD ID: 15237
Int'l Code: 1984-093D
Perigee: 35,912.9 km
Apogee: 35,953.9 km
Inclination: 14.8 °
Period: 1,443.2 minutes
Semi major axis: 42304 km
RCS: 4.6276 m2 (large)
Launch date: August 30, 1984
Source: United States (US)
Launch site: AIR FORCE EASTERN TEST RANGE (AFETR)
aabbcc
Your satellite tracking list
Your tracking list is empty




NASA's NSSDC Master Catalog

Two Line Element Set (TLE):
1 15237U 84093D   22343.00636699 -.00000243  00000-0  00000+0 0  9994
2 15237  14.8179 355.1795 0004838 130.8294  56.8392  0.99775648111882
Source of the keplerian elements: AFSPC